Location: Trebic
(49.2170°N, 15.8830°E)
Time: 15:41:16
(UTC+02:00)

Courier 1B Rocket - Pass Details

Date: 28 August 2019
Orbit: 920 x 1202 km, 28.2° (Epoch: 22 September)

Event Time Altitude Azimuth Distance (km) Brightness Sun altitude
Rises 04:01:54 0° 232° (SW) 3,832 - -18.5°
Reaches altitude 10° 04:06:17 10° 207° (SSW) 2,944 - -18.0°
Exits shadow 04:08:57 13° 185° (S) 2,743 6.9 -17.6°
Maximum altitude 04:09:27 13° 181° (S) 2,744 7.0 -17.6°
Drops below altitude 10° 04:12:42 10° 154° (SSE) 3,029 7.4 -17.2°
Sets 04:17:22 0° 130° (SE) 4,040 8.4 -16.6°
